Orbital Elements at Epoch 2459200.5 (2020-Dec-17.0) TDB
Reference: JPL 34 (heliocentric ecliptic J2000)
Element | Value | Uncertainty (1-sigma) | Units |
e | .1462041235260003 | 3.5938e-08 | |
a | 2.392480393078066 | 8.3317e-09 | au |
q | 2.042689894154947 | 8.6695e-08 | au |
i | 1.120182411146151 | 3.9822e-06 | deg |
node | 26.09505707154273 | 0.00019617 | deg |
peri | 186.2761022515364 | 0.00019661 | deg |
M | 4.262825362987911 | 1.4393e-05 | deg |
tp | 2459184.494617842708 (2020-Nov-30.99461784) | 5.4012e-05 | TDB |
period | 1351.671036457009 3.70 | 7.0607e-06 1.933e-08 | d yr |
n | .2663369934622773 | 1.3913e-09 | deg/d |
Q | 2.742270892001185 | 9.5498e-09 | au |
|
| | Orbit Determination Parameters
Additional Information
|